| time (UTC) | temp C | wind direction | speed KPH | gust KPH | rain 1hr cm | rain 24hr cm | rain mn cm | humidity % | barometer mb |
| 20260504233052 | 28 | 206 | 3.2 | 16.1 | 0.00 | 0.00 | 0.00 | 26 | 1006.6 |
| 20260504231554 | 28 | 343 | 4.8 | 19.3 | 0.00 | 0.00 | 0.00 | 24 | 1006.6 |
| 20260504230046 | 27 | 151 | 4.8 | 17.7 | 0.00 | 0.00 | 0.00 | 24 | 1006.8 |
| 20260504224546 | 28 | 233 | 6.4 | 14.5 | 0.00 | 0.00 | 0.00 | 22 | 1006.9 |
| 20260504223045 | 27 | 40 | 11.3 | 22.5 | 0.00 | 0.00 | 0.00 | 22 | 1006.9 |
| 20260504221552 | 28 | 314 | 8.0 | 17.7 | 0.00 | 0.00 | 0.00 | 20 | 1006.9 |
| 20260504220043 | 28 | 137 | 6.4 | 17.7 | 0.00 | 0.00 | 0.00 | 21 | 1006.9 |
| 20260504214546 | 27 | 213 | 4.8 | 22.5 | 0.00 | 0.00 | 0.00 | 25 | 1007.0 |
| 20260504213039 | 28 | 219 | 4.8 | 12.9 | 0.00 | 0.00 | 0.00 | 22 | 1007.0 |
| 20260504211539 | 27 | 64 | 8.0 | 16.1 | 0.00 | 0.00 | 0.00 | 22 | 1007.2 |
| 20260504210040 | 27 | 22 | 4.8 | 14.5 | 0.00 | 0.00 | 0.00 | 22 | 1007.1 |
| 20260504204612 | 27 | 268 | 3.2 | 6.4 | 0.00 | 0.00 | 0.00 | 22 | 1007.1 |
| 20260504203035 | 27 | 77 | 4.8 | 16.1 | 0.00 | 0.00 | 0.00 | 24 | 1007.2 |
| 20260504201532 | 27 | 37 | 3.2 | 20.9 | 0.00 | 0.00 | 0.00 | 24 | 1007.3 |
| 20260504200036 | 27 | 89 | 1.6 | 12.9 | 0.00 | 0.00 | 0.00 | 25 | 1007.7 |
| 20260504194528 | 27 | 230 | 4.8 | 11.3 | 0.00 | 0.00 | 0.00 | 28 | 1007.8 |
| 20260504193026 | 26 | 212 | 4.8 | 11.3 | 0.00 | 0.00 | 0.00 | 28 | 1007.9 |
| 20260504191522 | 26 | 194 | 1.6 | 6.4 | 0.00 | 0.00 | 0.00 | 30 | 1008.1 |
| 20260504190019 | 25 | 226 | 1.6 | 12.9 | 0.00 | 0.00 | 0.00 | 30 | 1008.5 |
| 20260504184516 | 25 | 215 | 4.8 | 9.7 | 0.00 | 0.00 | 0.00 | 34 | 1008.6 |
| 20260504183011 | 23 | 118 | 0.0 | 3.2 | 0.00 | 0.00 | 0.00 | 37 | 1008.8 |
| 20260504181510 | 22 | 87 | 3.2 | 6.4 | 0.00 | 0.00 | 0.00 | 37 | 1008.9 |
| 20260504180004 | 22 | 216 | 0.0 | 6.4 | 0.00 | 0.00 | 0.00 | 41 | 1009.2 |
| 20260504174600 | 21 | 27 | 0.0 | 3.2 | 0.00 | 0.00 | 0.00 | 43 | 1009.4 |
| 20260504173056 | 20 | 241 | 1.6 | 6.4 | 0.00 | 0.00 | 0.00 | 44 | 1009.5 |
| 20260504171552 | 19 | 154 | 0.0 | 4.8 | 0.00 | 0.00 | 0.00 | 44 | 1009.7 |
| 20260504081536 | 8 | 143 | 0.0 | 0.0 | 0.00 | 0.00 | 0.00 | 82 | 1010.8 |
| 20260504050018 | 13 | 143 | 0.0 | 0.0 | 0.00 | 0.00 | 0.00 | 69 | 1010.3 |
| 20260504044523 | 15 | 143 | 0.0 | 0.0 | 0.00 | 0.00 | 0.00 | 68 | 1010.2 |
| 20260504043018 | 15 | 142 | 0.0 | 0.0 | 0.00 | 0.00 | 0.00 | 66 | 1010.0 |
| 20260504041516 | 16 | 141 | 0.0 | 0.0 | 0.00 | 0.00 | 0.00 | 66 | 1010.0 |
| 20260504040022 | 16 | 141 | 0.0 | 0.0 | 0.00 | 0.00 | 0.00 | 60 | 1009.8 |
| 20260504034516 | 18 | 141 | 0.0 | 0.0 | 0.00 | 0.00 | 0.00 | 56 | 1009.6 |
| 20260504033016 | 19 | 141 | 0.0 | 0.0 | 0.00 | 0.00 | 0.00 | 52 | 1009.4 |
| 20260504031515 | 20 | 141 | 0.0 | 8.0 | 0.00 | 0.00 | 0.00 | 50 | 1009.2 |
| 20260504030020 | 21 | 228 | 0.0 | 8.0 | 0.00 | 0.00 | 0.00 | 45 | 1009.1 |
| 20260504024514 | 23 | 251 | 1.6 | 8.0 | 0.00 | 0.00 | 0.00 | 37 | 1009.0 |
| 20260504023013 | 23 | 229 | 0.0 | 6.4 | 0.00 | 0.00 | 0.00 | 35 | 1008.9 |
| 20260504021512 | 23 | 90 | 0.0 | 9.7 | 0.00 | 0.00 | 0.00 | 38 | 1008.9 |
| 20260504020017 | 23 | 145 | 0.0 | 4.8 | 0.00 | 0.00 | 0.00 | 35 | 1009.0 |
| 20260504014512 | 26 | 236 | 1.6 | 8.0 | 0.00 | 0.00 | 0.00 | 30 | 1009.0 |
| 20260504013011 | 26 | 246 | 1.6 | 4.8 | 0.00 | 0.00 | 0.00 | 30 | 1009.0 |
| 20260504011508 | 27 | 63 | 1.6 | 6.4 | 0.00 | 0.00 | 0.00 | 26 | 1009.0 |
| 20260504010006 | 26 | 91 | 1.6 | 6.4 | 0.00 | 0.00 | 0.00 | 25 | 1009.1 |
| 20260504004503 | 27 | 79 | 1.6 | 8.0 | 0.00 | 0.00 | 0.00 | 25 | 1009.1 |
| 20260504003002 | 27 | 288 | 0.0 | 11.3 | 0.00 | 0.00 | 0.00 | 23 | 1009.2 |
| 20260504001620 | 27 | 354 | 1.6 | 12.9 | 0.00 | 0.00 | 0.00 | 22 | 1009.3 |
| 20260504000059 | 27 | 71 | 1.6 | 4.8 | 0.00 | 0.00 | 0.00 | 20 | 1009.3 |
| 20260503234557 | 27 | 44 | 4.8 | 12.9 | 0.00 | 0.00 | 0.00 | 21 | 1009.4 |